DW8343 Weather Reports


time (UTC)temp
C
wind
direction
speed
KPH
gust
KPH
rain 1hr
cm
rain 24hr
cm
rain mn
cm
humidity
%
barometer
mb
20260506021732 9 28 0.0 3.2 0.00 0.00 0.00 84 1014.0
20260506021229 9 28 0.0 1.6 0.00 0.00 0.00 84 1013.9
20260506020726 9 20 0.0 4.8 0.00 0.00 0.00 84 1013.8
20260506020224 9 45 3.2 3.2 0.00 0.00 0.00 84 1013.7
20260506015721 9 348 0.0 1.6 0.00 0.00 0.00 84 1013.4
20260506015219 9 38 0.0 1.6 0.00 0.00 0.00 84 1013.8
20260506014715 9 31 0.0 3.2 0.00 0.00 0.00 84 1013.5
20260506014211 9 17 0.0 6.4 0.00 0.00 0.00 84 1013.4
20260506013709 10 61 1.6 1.6 0.00 0.00 0.00 83 1013.2
20260506013206 10 355 1.6 1.6 0.00 0.00 0.00 83 1013.3
20260506012702 10 333 1.6 3.2 0.00 0.00 0.00 82 1013.3
20260506012159 10 11 1.6 3.2 0.00 0.00 0.00 82 1013.3
20260506011657 10 5 1.6 3.2 0.00 0.00 0.00 82 1013.1
20260506011152 10 32 0.0 3.2 0.00 0.00 0.00 82 1013.2
20260506010651 10 284 0.0 1.6 0.00 0.00 0.00 82 1013.1
20260506010148 10 9 1.6 1.6 0.00 0.00 0.00 82 1012.7
20260506005645 10 299 1.6 3.2 0.00 0.00 0.00 82 1012.6
20260506005142 10 16 3.2 3.2 0.00 0.00 0.00 82 1012.4
20260506004638 10 219 3.2 3.2 0.00 0.00 0.00 82 1012.3
20260506004135 10 213 0.0 3.2 0.00 0.00 0.00 82 1012.2
20260506003632 10 13 0.0 3.2 0.00 0.00 0.00 81 1011.8
20260506003128 10 247 0.0 3.2 0.00 0.00 0.00 81 1012.0
20260506002619 10 21 1.6 3.2 0.00 0.00 0.00 81 1012.1
20260506002115 10 350 0.0 4.8 0.00 0.00 0.00 80 1012.0
20260506001611 10 28 0.0 4.8 0.00 0.00 0.00 80 1011.8
20260506001108 10 12 3.2 3.2 0.00 0.00 0.00 80 1011.9
20260506000606 10 333 0.0 3.2 0.00 0.00 0.00 80 1012.1
20260505235601 10 344 0.0 4.8 0.00 0.00 0.00 79 1011.9
20260505235057 10 18 1.6 4.8 0.00 0.00 0.00 78 1011.7
20260505234554 11 20 1.6 4.8 0.00 0.00 0.00 77 1011.8
20260505234051 11 17 1.6 3.2 0.00 0.00 0.00 77 1011.8
20260505233548 11 39 0.0 1.6 0.00 0.00 0.00 77 1012.0
20260505233045 11 31 0.0 1.6 0.00 0.00 0.00 77 1012.4
20260505232543 11 179 1.6 1.6 0.00 0.00 0.00 77 1012.6
20260505232040 11 164 0.0 1.6 0.00 0.00 0.00 76 1012.3
20260505231537 11 24 1.6 3.2 0.00 0.00 0.00 76 1012.2
20260505231037 11 260 3.2 3.2 0.00 0.00 0.00 76 1012.0
20260505230534 11 39 1.6 3.2 0.00 0.00 0.00 76 1011.4
20260505230030 11 20 1.6 4.8 0.00 0.00 0.00 75 1011.7
20260505225527 11 309 1.6 3.2 0.00 0.00 0.00 75 1011.7
20260505225022 11 15 0.0 1.6 0.00 0.00 0.00 75 1011.5
20260505224520 11 2 0.0 3.2 0.00 0.00 0.00 76 1011.6
20260505224017 11 18 3.2 3.2 0.00 0.00 0.00 75 1011.4
20260505223514 11 116 1.6 3.2 0.00 0.00 0.00 75 1011.6
20260505223010 11 351 6.4 12.9 0.00 0.00 0.00 75 1011.7
20260505222507 11 93 3.2 3.2 0.00 0.00 0.00 76 1011.3
20260505222002 11 5 0.0 3.2 0.00 0.00 0.00 76 1010.9
20260505221500 11 39 1.6 3.2 0.00 0.00 0.00 76 1011.1
20260505220957 11 184 1.6 3.2 0.00 0.00 0.00 75 1011.0
20260505220454 11 321 3.2 4.8 0.00 0.00 0.00 75 1011.2
20260505215951 12 16 0.0 4.8 0.00 0.00 0.00 75 1011.1
20260505215449 12 115 1.6 3.2 0.00 0.00 0.00 75 1011.0
20260505214947 12 16 1.6 1.6 0.00 0.00 0.00 74 1010.5
20260505214445 12 45 1.6 4.8 0.00 0.00 0.00 74 1010.4
20260505213942 12 347 0.0 3.2 0.00 0.00 0.00 75 1010.3
20260505213439 12 20 1.6 6.4 0.00 0.00 0.00 75 1010.5
20260505212935 12 17 1.6 4.8 0.00 0.00 0.00 74 1010.6
20260505212432 12 12 0.0 4.8 0.00 0.00 0.00 74 1010.8
20260505211928 12 318 1.6 4.8 0.00 0.00 0.00 74 1010.9
20260505211426 12 22 1.6 4.8 0.00 0.00 0.00 74 1010.1
20260505210922 12 346 3.2 4.8 0.00 0.00 0.00 73 1010.4
20260505210420 12 275 1.6 4.8 0.00 0.00 0.00 75 1010.0
20260505205916 12 280 3.2 4.8 0.00 0.00 0.00 75 1010.1
20260505205415 12 15 0.0 4.8 0.00 0.00 0.00 75 1010.5
20260505204911 12 10 0.0 3.2 0.00 0.00 0.00 75 1011.0
20260505204409 12 21 0.0 3.2 0.00 0.00 0.00 75 1011.4
20260505203906 12 45 1.6 3.2 0.00 0.00 0.00 76 1010.9
20260505203403 12 347 0.0 6.4 0.00 0.00 0.00 75 1010.4
20260505202859 12 28 1.6 3.2 0.00 0.00 0.00 75 1010.5
20260505202355 12 282 3.2 3.2 0.00 0.00 0.00 75 1010.2
20260505201852 12 38 1.6 3.2 0.00 0.00 0.00 75 1010.1
20260505201349 12 24 1.6 4.8 0.00 0.00 0.00 76 1009.9
20260505200847 12 28 3.2 9.7 0.00 0.00 0.00 76 1010.1
20260505200344 12 342 1.6 3.2 0.00 0.00 0.00 76 1010.2
20260505195840 12 24 0.0 3.2 0.00 0.00 0.00 77 1010.1
20260505195337 12 60 3.2 4.8 0.00 0.00 0.00 78 1010.1
20260505194834 12 11 3.2 4.8 0.00 0.00 0.00 78 1010.3
20260505194331 12 304 1.6 3.2 0.00 0.00 0.00 79 1010.0
20260505193826 12 287 0.0 6.4 0.00 0.00 0.00 79 1010.1
20260505193324 12 244 1.6 4.8 0.00 0.00 0.00 79 1009.9
20260505192822 12 236 3.2 4.8 0.00 0.00 0.00 80 1010.3
20260505192320 12 20 4.8 6.4 0.00 0.00 0.00 79 1009.9
20260505191817 12 336 3.2 4.8 0.00 0.00 0.00 80 1009.7
20260505191316 12 348 1.6 3.2 0.00 0.00 0.00 80 1010.0
20260505190812 12 21 1.6 3.2 0.00 0.00 0.00 81 1010.1
20260505190307 12 92 1.6 3.2 0.00 0.00 0.00 81 1010.1
20260505185803 12 0 1.6 6.4 0.00 0.00 0.00 81 1009.7
20260505185300 12 221 1.6 3.2 0.00 0.00 0.00 82 1009.9
20260505184756 12 99 1.6 4.8 0.00 0.00 0.00 81 1009.6
20260505184253 13 358 1.6 4.8 0.00 0.00 0.00 81 1009.9
20260505183750 13 323 0.0 4.8 0.00 0.00 0.00 81 1009.4
20260505183248 13 23 3.2 4.8 0.00 0.00 0.00 80 1009.9
20260505182744 13 79 0.0 1.6 0.00 0.00 0.00 80 1009.7
20260505182241 13 335 1.6 3.2 0.00 0.00 0.00 80 1009.5
20260505181737 13 313 1.6 4.8 0.00 0.00 0.00 79 1009.4
20260505181235 13 246 3.2 4.8 0.00 0.00 0.00 79 1009.3
20260505180731 13 29 0.0 3.2 0.00 0.00 0.00 80 1009.3
20260505180228 13 327 1.6 3.2 0.00 0.00 0.00 79 1009.3
20260505175724 14 290 1.6 3.2 0.00 0.00 0.00 79 1009.0
20260505175221 13 20 0.0 3.2 0.00 0.00 0.00 80 1008.6
20260505174717 13 344 0.0 3.2 0.00 0.00 0.00 80 1008.7
20260505174214 13 42 1.6 3.2 0.00 0.00 0.00 80 1008.8
20260505173710 13 236 1.6 4.8 0.00 0.00 0.00 81 1008.6
20260505173207 13 294 3.2 4.8 0.00 0.00 0.00 81 1008.9
20260505172704 13 352 1.6 3.2 0.00 0.00 0.00 81 1008.5
20260505172201 13 274 3.2 3.2 0.00 0.00 0.00 81 1008.7
20260505171701 13 32 3.2 6.4 0.00 0.00 0.00 82 1008.3
20260505171158 13 337 3.2 4.8 0.00 0.00 0.00 82 1008.3
20260505170655 13 26 0.0 4.8 0.00 0.00 0.00 83 1008.2
20260505170152 13 318 3.2 4.8 0.00 0.00 0.00 82 1008.3
20260505165652 13 60 1.6 9.7 0.00 0.00 0.00 83 1008.2
20260505165148 13 336 0.0 14.5 0.00 0.00 0.00 83 1008.0
20260505164644 13 11 1.6 4.8 0.00 0.00 0.00 83 1007.9
20260505164142 13 20 3.2 3.2 0.00 0.00 0.00 83 1007.7
20260505163640 13 14 1.6 4.8 0.00 0.00 0.00 84 1007.7
20260505163137 13 232 1.6 4.8 0.00 0.00 0.00 84 1007.4
20260505162634 13 8 3.2 9.7 0.00 0.00 0.00 84 1007.4
20260505162132 13 5 0.0 3.2 0.00 0.00 0.00 84 1007.1
20260505161629 14 18 3.2 4.8 0.00 0.00 0.00 84 1007.0
20260505161126 14 28 1.6 11.3 0.00 0.00 0.00 84 1006.6
20260505160624 14 358 3.2 4.8 0.00 0.00 0.00 84 1006.3
20260505160121 15 0 1.6 3.2 0.00 0.00 0.00 84 1006.3
20260505153101 16 353 3.2 4.8 0.00 0.00 0.00 85 1005.8
20260505152557 16 254 1.6 3.2 0.00 0.00 0.00 85 1005.7
20260505152053 16 14 3.2 4.8 0.00 0.00 0.00 85 1005.5
20260505151548 16 343 3.2 3.2 0.00 0.00 0.00 84 1005.1
20260505151046 17 2 3.2 11.3 0.00 0.00 0.00 84 1005.0
20260505150542 17 10 1.6 4.8 0.00 0.00 0.00 83 1004.8
20260505140508 20 41 0.0 1.6 0.00 0.00 0.00 86 1003.3
20260505124921 20 63 1.6 3.2 0.00 0.00 0.00 86 1003.1
20260505124418 20 353 0.0 0.0 0.00 0.00 0.00 85 1003.1
20260505123914 20 30 1.6 1.6 0.00 0.00 0.00 85 1002.8
20260505123411 20 52 0.0 1.6 0.00 0.00 0.00 85 1003.0
20260505122906 20 57 0.0 1.6 0.00 0.00 0.00 85 1002.9
20260505122404 20 30 0.0 0.0 0.00 0.00 0.00 85 1002.9
20260505121900 20 30 0.0 0.0 0.00 0.00 0.00 85 1002.7
20260505121358 20 30 0.0 0.0 0.00 0.00 0.00 85 1002.6
20260505120853 20 30 0.0 0.0 0.00 0.00 0.00 84 1002.6
20260505120350 20 30 0.0 0.0 0.00 0.00 0.00 83 1002.3
20260505115848 20 30 0.0 0.0 0.00 0.00 0.00 83 1002.5
20260505115346 20 30 0.0 0.0 0.00 0.00 0.00 82 1002.6
20260505114844 20 30 0.0 0.0 0.00 0.00 0.00 82 1002.2
20260505114340 20 30 0.0 0.0 0.00 0.00 0.00 81 1002.1
20260505113836 20 30 0.0 0.0 0.00 0.00 0.00 81 1002.1
20260505113333 21 30 0.0 0.0 0.00 0.00 0.00 80 1001.8
20260505112829 21 30 0.0 0.0 0.00 0.00 0.00 79 1001.8
20260505112326 21 30 0.0 0.0 0.00 0.00 0.00 78 1001.5
20260505111822 21 30 0.0 1.6 0.00 0.00 0.00 78 1001.3
20260505111317 21 249 0.0 1.6 0.00 0.00 0.00 78 1001.1
20260505110814 21 68 0.0 0.0 0.00 0.00 0.00 77 1001.3
20260505110311 21 254 1.6 4.8 0.00 0.00 0.00 76 1001.3
20260505101746 22 102 3.2 11.3 0.00 0.00 0.00 75 1000.2
20260505101241 22 179 3.2 9.7 0.00 0.00 0.00 75 1000.0
20260505100738 22 272 3.2 4.8 0.00 0.00 0.00 75 1000.1
20260505100234 22 243 3.2 6.4 0.00 0.00 0.00 75 1000.1
20260505095730 22 53 3.2 12.9 0.00 0.00 0.00 75 999.9
20260505095228 22 22 1.6 9.7 0.00 0.00 0.00 75 999.9
20260505094723 22 27 3.2 6.4 0.00 0.00 0.00 75 1000.2
20260505094220 22 122 4.8 14.5 0.00 0.00 0.00 75 1000.0
20260505093716 22 254 4.8 11.3 0.00 0.00 0.00 75 1000.2
20260505093214 22 207 3.2 11.3 0.00 0.00 0.00 75 999.9
20260505092710 22 155 3.2 14.5 0.00 0.00 0.00 75 999.9
20260505092210 22 227 1.6 14.5 0.00 0.00 0.00 75 1000.0
20260505091706 22 213 6.4 12.9 0.00 0.00 0.00 75 1000.0
20260505091204 22 144 3.2 6.4 0.00 0.00 0.00 75 1000.1
20260505090701 22 263 3.2 14.5 0.00 0.00 0.00 75 1000.1
20260505090159 22 252 4.8 9.7 0.00 0.00 0.00 75 1000.2
20260505085657 22 174 3.2 6.4 0.00 0.00 0.00 75 1000.1
20260505085155 22 200 1.6 16.1 0.00 0.00 0.00 75 1000.3
20260505084652 22 288 4.8 9.7 0.00 0.00 0.00 75 1000.4
20260505084151 22 138 4.8 12.9 0.00 0.00 0.00 75 1000.4
20260505083647 22 299 1.6 6.4 0.00 0.00 0.00 75 1000.6
20260505083144 22 299 4.8 11.3 0.00 0.00 0.00 75 1000.6
20260505082640 22 312 3.2 11.3 0.00 0.00 0.00 75 1000.6
20260505082137 22 327 3.2 9.7 0.00 0.00 0.00 75 1000.7
20260505081633 22 233 6.4 16.1 0.00 0.00 0.00 75 1000.8
20260505081131 22 275 3.2 12.9 0.00 0.00 0.00 75 1000.7
20260505080627 22 71 3.2 11.3 0.00 0.00 0.00 75 1000.8
20260505080123 22 259 4.8 11.3 0.00 0.00 0.00 75 1000.8
20260505075620 22 241 3.2 9.7 0.00 0.00 0.00 75 1000.7
20260505075116 22 265 6.4 16.1 0.00 0.00 0.00 75 1001.0
20260505074613 22 257 6.4 11.3 0.00 0.00 0.00 75 1001.0
20260505074110 22 146 1.6 6.4 0.00 0.00 0.00 75 1000.9
20260505073608 22 266 6.4 11.3 0.00 0.00 0.00 75 1001.1
20260505073106 22 245 6.4 11.3 0.00 0.00 0.00 75 1001.0
20260505072601 22 338 6.4 20.9 0.00 0.00 0.00 74 1001.2
20260505072058 22 247 1.6 14.5 0.00 0.00 0.00 74 1001.1
20260505071559 22 170 11.3 16.1 0.00 0.00 0.00 74 1001.4
20260505071057 22 180 0.0 11.3 0.00 0.00 0.00 75 1001.4
20260505070554 22 171 4.8 11.3 0.00 0.00 0.00 74 1001.4
20260505070050 22 259 3.2 17.7 0.00 0.00 0.00 74 1001.6
20260505065546 22 334 8.0 14.5 0.00 0.00 0.00 74 1001.5
20260505065043 22 183 3.2 12.9 0.00 0.00 0.00 74 1001.6
20260505064539 22 135 3.2 11.3 0.00 0.00 0.00 74 1001.6
20260505064038 22 112 4.8 12.9 0.00 0.00 0.00 74 1001.8
20260505063535 22 102 3.2 12.9 0.00 0.00 0.00 74 1001.8
20260505063031 22 317 3.2 16.1 0.00 0.00 0.00 74 1001.8
20260505062528 22 124 1.6 6.4 0.00 0.00 0.00 74 1001.8
20260505062025 22 108 6.4 9.7 0.00 0.00 0.00 74 1001.9
20260505061522 22 7 6.4 9.7 0.00 0.00 0.00 74 1001.8
20260505061020 22 288 6.4 12.9 0.00 0.00 0.00 74 1001.7
20260505060517 22 134 8.0 14.5 0.00 0.00 0.00 73 1001.9
20260505060014 22 217 6.4 6.4 0.00 0.00 0.00 74 1002.0
20260505055509 22 168 9.7 12.9 0.00 0.00 0.00 73 1002.3
20260505055006 22 305 6.4 14.5 0.00 0.00 0.00 73 1002.3
20260505054504 22 249 1.6 9.7 0.00 0.00 0.00 73 1002.2
20260505054001 22 236 3.2 9.7 0.00 0.00 0.00 73 1002.4
20260505053458 22 148 6.4 12.9 0.00 0.00 0.00 73 1002.3
20260505052955 23 274 1.6 6.4 0.00 0.00 0.00 73 1002.3
20260505052452 23 222 3.2 12.9 0.00 0.00 0.00 72 1002.3
20260505051949 23 237 4.8 12.9 0.00 0.00 0.00 72 1002.2
20260505051446 23 92 1.6 14.5 0.00 0.00 0.00 72 1002.3
20260505050944 23 119 6.4 12.9 0.00 0.00 0.00 72 1002.6
20260505050442 23 226 6.4 22.5 0.00 0.00 0.00 72 1002.6
20260505041410 23 318 6.4 9.7 0.00 0.00 0.00 71 1003.0
20260505040907 23 175 4.8 11.3 0.00 0.00 0.00 71 1003.1
20260505040405 23 68 4.8 17.7 0.00 0.00 0.00 70 1003.2
20260505035901 23 242 6.4 14.5 0.00 0.00 0.00 70 1003.1
20260505035357 23 108 6.4 20.9 0.00 0.00 0.00 70 1003.1
20260505034854 23 246 3.2 6.4 0.00 0.00 0.00 70 1003.1
20260505034351 23 347 3.2 12.9 0.00 0.00 0.00 69 1002.9
20260505033848 23 242 1.6 12.9 0.00 0.00 0.00 69 1003.0
20260505033345 23 258 6.4 16.1 0.00 0.00 0.00 69 1002.7
20260505032843 23 270 6.4 14.5 0.00 0.00 0.00 69 1002.8
20260505032339 24 242 3.2 16.1 0.00 0.00 0.00 69 1002.7
20260505031836 24 190 4.8 9.7 0.00 0.00 0.00 68 1002.7
20260505031333 24 308 3.2 11.3 0.00 0.00 0.00 68 1002.6
20260505030830 24 264 6.4 17.7 0.00 0.00 0.00 68 1002.8
20260505030326 24 180 3.2 12.9 0.00 0.00 0.00 68 1002.7
20260505025822 24 122 4.8 17.7 0.00 0.00 0.00 67 1002.8
20260505025320 24 91 6.4 12.9 0.00 0.00 0.00 67 1002.6
20260505024818 24 287 11.3 14.5 0.00 0.00 0.00 67 1002.6
20260505024315 24 280 4.8 9.7 0.00 0.00 0.00 66 1002.2
20260505023812 24 239 6.4 20.9 0.00 0.00 0.00 66 1002.5
20260505023309 24 265 6.4 22.5 0.00 0.00 0.00 66 1002.5
20260505022806 24 197 6.4 14.5 0.00 0.00 0.00 66 1002.4
20260505022304 25 66 8.0 14.5 0.00 0.00 0.00 66 1002.4